Location: Mount Tamalpais State Park
(37.9108°N, 122.6128°W)
Time: 22:37:18
(UTC-08:00)

Cosmos 1814 Rocket - Visible Passes

Search period start: 20 November 2017 00:00
Search period end: 30 November 2017 00:00
Orbit: 744 x 788 km, 74.1° (Epoch: 20 November)

Date Brightness Start Highest point End Pass type
(mag) Time Alt. Az. Time Alt. Az. Time Alt. Az.
20 Nov 7.2 06:26:36 10° ESE 06:28:55 13° E 06:31:16 10° ENE visible
20 Nov 5.2 18:34:44 10° NNW 18:39:49 44° WSW 18:44:51 10° S visible
21 Nov 4.2 17:56:58 10° NNW 18:02:20 80° WSW 18:07:41 10° SSE visible
22 Nov 4.1 17:19:28 10° N 17:24:46 59° ENE 17:30:02 10° SSE visible
22 Nov 7.1 19:03:13 10° WNW 19:06:12 15° W 19:09:10 10° SW visible
23 Nov 6.8 06:13:58 10° SSE 06:17:54 22° E 06:21:53 10° NE visible
23 Nov 6.3 18:24:28 10° NW 18:28:55 27° W 18:33:20 10° SSW visible
24 Nov 7.4 05:38:44 10° ESE 05:40:39 12° E 05:42:35 10° ENE visible
24 Nov 5.2 17:46:24 10° NNW 17:51:31 48° WSW 17:56:38 10° S visible
26 Nov 5.8 06:02:14 10° SSE 06:06:58 37° E 06:11:46 10° NE visible
26 Nov 7.1 18:14:41 10° WNW 18:17:56 16° W 18:21:10 10° SW visible
27 Nov 6.7 05:25:50 10° SE 05:29:38 21° E 05:33:27 10° NE visible
27 Nov 6.3 17:36:05 10° NW 17:40:38 29° W 17:45:11 10° SSW visible
28 Nov 7.4 04:51:00 10° ESE 04:52:23 11° E 04:53:47 10° ENE visible
28 Nov 4.0 06:28:26 10° SSW 06:33:38 75° WNW 06:38:56 10° NNE visible
29 Nov 4.6 05:50:58 10° S 05:56:06 62° ESE 06:01:19 10° NNE visible
